Regional Weather Roundup
Issued by NWS

Home | Current Version | Previous Version | Graphics & Text | Print | Product List | Glossary On
Versions: 1 2 3 4 5 6 7 8 9 10 11 12 13 14 15 16 17 18 19 20 21 22 23 24 25 26 27 28 29 30 31 32 33 34 35 36 37 38 39 40 41 42 43 44 45 46 47 48 49 50
000
ASUS43 KTOP 282108
RWRKS

WEATHER ROUNDUP FOR KANSAS
NATIONAL WEATHER SERVICE GOODLAND KS
300 PM CST WED JAN 28 2015

NOTE:  "FAIR" INDICATES FEW OR NO CLOUDS BELOW 12,000 FEET WITH NO
SIGNIFICANT WEATHER AND/OR OBSTRUCTIONS TO VISIBILITY.

KSZ001>006-013>018-027>032-041>047-282200-
NORTHWEST KANSAS

CITY           SKY/WX    TMP DP  RH WIND       PRES   REMARKS
GOODLAND       SUNNY     65  28  24 NW33G44   29.92S
HAYS           SUNNY     72  30  21 NW22G31   29.81S
HILL CITY      SUNNY     72  29  20 NW26G38   29.81F
RUSSELL        SUNNY     73  31  21 NW28G35   29.78R
$$

KSZ061>065-074>080-084>089-282200-
SOUTHWEST KANSAS

CITY           SKY/WX    TMP DP  RH WIND       PRES   REMARKS
DODGE CITY     SUNNY     71  25  17 N24G33    29.88F
ELKHART          N/A     69  27  20 NW10        N/A
GARDEN CITY    SUNNY     71  27  19 NW23G30   29.91F
LIBERAL        MOSUNNY   72  32  23 NW17      29.96S
PRATT          MOSUNNY   73  27  17 NW16G24   29.85R
$$

KSZ066>073-081>083-090>101-282200-
SOUTHEAST KANSAS

CITY           SKY/WX    TMP DP  RH WIND       PRES   REMARKS
CHANUTE        PTSUNNY   73  39  29 S20G29    29.78F
COFFEYVILLE    PTSUNNY   73  41  31 S22G31    29.81F
HUTCHINSON     PTSUNNY   72  33  24 W13       29.80R
MEDICINE LODGE   N/A     76  30  18 N15G28    29.84R
NEWTON         MOSUNNY   66  36  32 W20       29.80S
PARSONS        PTSUNNY   73  40  30 S18G26    29.81F
WICHITA INTL   PTSUNNY   70  37  29 W16       29.80R
WICHITA JABRA  PTSUNNY   69  37  30 SW17G26   29.79R
WICHITA MCCONL PTSUNNY   70  40  33 SW17      29.79R
WINFIELD       PTSUNNY   73  37  27 SW18      29.80F
$$

KSZ007>012-019>026-033>040-048>060-102>105-282200-
NORTHEAST KANSAS

CITY           SKY/WX    TMP DP  RH WIND       PRES   REMARKS
CONCORDIA      PTSUNNY   69  33  26 NW13      29.71F
EMPORIA        PTSUNNY   73  38  27 SW21G31   29.71F
LAWRENCE       PTSUNNY   74  36  25 S23G29    29.70F
MANHATTAN      PTSUNNY   67  37  33 SW13G22   29.71F
MARYSVILLE     MOSUNNY   63  36  36 SW10      29.68F
OLATHE IND     PTSUNNY   73  37  27 S25G35    29.74F
OLATHE EXE     PTSUNNY   73  38  27 S16G23    29.73F
SALINA         PTSUNNY   70  33  25 NW12      29.76S
TOPEKA BILLARD PTSUNNY   77  37  23 SW18G28   29.68F
TOPEKA FORBES  PTSUNNY   79  37  22 SW23      29.68F
$$


USA.gov is the U.S. government's official web portal to all federal, state and local government web resources and services.